Weather History for KCNB - January, 2012

Change the Weather History Date:

Monday, January 9, 2012

  Actual Average (KMML) Record (KMML)
Temperature  
Mean Temperature 43 °F -  
Max Temperature 55 °F 16 °F 55 °F (2012)
Min Temperature 31 °F 0 °F -29 °F (1977)
Degree Days  
Heating Degree Days 22    
Moisture  
Dew Point 24 °F    
Average Humidity 53    
Maximum Humidity 76    
Minimum Humidity 33    
Precipitation  
Precipitation 0.00 in - - ()
Sea Level Pressure  
Sea Level Pressure 29.96 in    
Wind  
Wind Speed 14 mph (WSW)    
Max Wind Speed 23 mph    
Max Gust Speed 33 mph    
Visibility 10 miles    
Events      
Averages and records for this station are not official NWS values.
T = Trace of Precipitation, MM = Missing Value Source: NWS Daily Summary

Daily Weather History Graph

Daily Weather History Graph

Search for Another Location

Airport or City:

Trip Planner

Search our weather history database for the weather conditions in past years. The results will help you decide how hot, cold, wet, or windy it might be!

Date:

Astronomy

Jan. 09, 2012 Rise Set
Actual Time 8:01 AM CST 5:02 PM CST
Civil Twilight 7:28 AM CST 5:35 PM CST
Nautical Twilight 6:51 AM CST 6:12 PM CST
Astronomical Twilight 6:16 AM CST 6:47 PM CST
Moon 5:53 PM CST (1/9) 8:00 AM CST (1/9)
Length of Visible Light 10h 07m
Length of Day
9h 01m
Full, 100% of the Moon is Illuminated
Jan 9
Full
Jan 16
Last Quarter
Jan 23
New
Jan 30
First Quarter
Feb 7
Full

Hourly Weather History & Observations

Time (CST) Temp. Windchill Dew Point Humidity Pressure Visibility Wind Dir Wind Speed Gust Speed Precip Events Conditions
12:16 AM 33.4 °F 24.8 °F 25.3 °F 72% 30.04 in 10.0 mi SW 11.5 mph - N/A   Clear
12:35 AM 32.0 °F 23.0 °F 24.8 °F 75% 30.03 in 10.0 mi SW 11.5 mph - N/A   Clear
12:56 AM 31.5 °F 21.8 °F 24.6 °F 76% 30.02 in 10.0 mi SW 12.7 mph 16.1 mph N/A   Clear
1:16 AM 31.8 °F 22.8 °F 23.9 °F 73% 30.01 in 10.0 mi SW 11.5 mph 17.3 mph N/A   Clear
1:36 AM 31.8 °F 22.8 °F 23.0 °F 70% 30.00 in 10.0 mi SW 11.5 mph 17.3 mph N/A   Clear
1:55 AM 32.0 °F 23.6 °F 22.6 °F 68% 29.99 in 10.0 mi SW 10.4 mph - N/A   Clear
2:16 AM 32.2 °F 24.4 °F 22.1 °F 66% 30.00 in 10.0 mi SW 9.2 mph - N/A   Clear
2:36 AM 32.5 °F 24.2 °F 21.6 °F 64% 29.99 in 10.0 mi SW 10.4 mph - N/A   Clear
2:56 AM 34.3 °F 24.2 °F 21.0 °F 58% 29.98 in 10.0 mi SW 16.1 mph 23.0 mph N/A   Clear
3:16 AM 34.0 °F 25.0 °F 20.8 °F 59% 29.96 in 10.0 mi SW 12.7 mph - N/A   Clear
3:36 AM 33.4 °F 25.9 °F 20.7 °F 59% 29.96 in 10.0 mi WSW 9.2 mph - N/A   Mostly Cloudy
3:55 AM 34.7 °F 24.7 °F 21.0 °F 57% 29.95 in 10.0 mi WSW 16.1 mph 23.0 mph N/A   Scattered Clouds
4:16 AM 35.6 °F 24.8 °F 20.7 °F 55% 29.91 in 10.0 mi SW 19.6 mph 28.8 mph N/A   Clear
4:36 AM 35.1 °F 24.5 °F 20.3 °F 55% 29.92 in 10.0 mi WSW 18.4 mph 25.3 mph N/A   Clear
4:55 AM 36.1 °F 27.3 °F 19.9 °F 52% 29.93 in 10.0 mi WNW 13.8 mph 24.2 mph N/A   Clear
5:36 AM 36.1 °F 24.7 °F 19.8 °F 51% 29.92 in 10.0 mi WSW 23.0 mph 32.2 mph N/A   Clear
5:56 AM 35.6 °F 24.5 °F 19.8 °F 53% 29.92 in 10.0 mi WSW 20.7 mph 33.4 mph N/A   Clear
6:16 AM 35.1 °F 23.3 °F 20.1 °F 55% 29.92 in 10.0 mi WSW 23.0 mph 29.9 mph N/A   Clear
6:36 AM 34.7 °F 23.7 °F 20.3 °F 56% 29.92 in 10.0 mi WSW 19.6 mph 29.9 mph N/A   Clear
6:55 AM 34.9 °F 23.6 °F 20.3 °F 55% 29.93 in 10.0 mi WSW 20.7 mph 27.6 mph N/A   Clear
7:16 AM 34.2 °F 24.0 °F 20.8 °F 58% 29.94 in 10.0 mi West 16.1 mph - N/A   Clear
7:36 AM 34.3 °F 26.5 °F 21.2 °F 59% 29.96 in 10.0 mi West 10.4 mph - N/A   Clear
7:56 AM 33.8 °F 25.8 °F 21.2 °F 60% 29.96 in 10.0 mi West 10.4 mph - N/A   Clear
8:16 AM 33.3 °F 25.7 °F 21.2 °F 61% 29.96 in 10.0 mi West 9.2 mph - N/A   Clear
8:36 AM 33.4 °F 24.3 °F 21.7 °F 62% 29.95 in 10.0 mi WSW 12.7 mph 17.3 mph N/A   Clear
8:56 AM 35.2 °F 26.6 °F 22.3 °F 59% 29.96 in 10.0 mi WSW 12.7 mph - N/A   Clear
9:16 AM 36.5 °F 26.3 °F 22.8 °F 58% 29.97 in 10.0 mi WSW 18.4 mph - N/A   Clear
9:36 AM 37.8 °F 27.7 °F 23.0 °F 55% 29.97 in 10.0 mi WSW 19.6 mph 24.2 mph N/A   Clear
10:16 AM 41.5 °F 33.8 °F 24.3 °F 50% 29.97 in 10.0 mi WSW 15.0 mph 23.0 mph N/A   Clear
10:35 AM 42.6 °F 35.6 °F 24.4 °F 49% 29.96 in 10.0 mi WSW 13.8 mph 24.2 mph N/A   Clear
10:56 AM 44.6 °F 37.2 °F 24.8 °F 46% 29.96 in 10.0 mi WSW 17.3 mph 21.9 mph N/A   Clear
11:15 AM 45.9 °F 38.8 °F 25.2 °F 44% 29.96 in 10.0 mi WSW 17.3 mph 24.2 mph N/A   Clear
11:35 AM 46.6 °F - 25.7 °F 44% 29.96 in 10.0 mi WSW 18.4 mph 21.9 mph N/A   Clear
11:56 AM 47.8 °F - 26.1 °F 43% 29.95 in 10.0 mi WSW 16.1 mph - N/A   Clear
12:15 PM 49.5 °F - 26.2 °F 40% 29.95 in 10.0 mi West 15.0 mph 19.6 mph N/A   Clear
12:36 PM 49.8 °F - 26.4 °F 40% 29.95 in 10.0 mi WSW 13.8 mph - N/A   Clear
12:56 PM 50.7 °F - 26.6 °F 39% 29.94 in 10.0 mi West 6.9 mph 16.1 mph N/A   Clear
1:16 PM 51.8 °F - 26.6 °F 38% 29.93 in 10.0 mi WSW 13.8 mph 25.3 mph N/A   Scattered Clouds
1:36 PM 53.2 °F - 26.6 °F 36% 29.92 in 10.0 mi WSW 13.8 mph - N/A   Mostly Cloudy
1:56 PM 53.4 °F - 26.4 °F 35% 29.92 in 10.0 mi West 12.7 mph 17.3 mph N/A   Scattered Clouds
2:35 PM 55.0 °F - 26.6 °F 33% 29.92 in 10.0 mi WSW 15.0 mph - N/A   Clear
2:56 PM 54.5 °F - 27.1 °F 35% 29.93 in 10.0 mi West 16.1 mph - N/A   Clear
3:16 PM 53.6 °F - 27.7 °F 37% 29.95 in 10.0 mi WNW 11.5 mph - N/A   Clear
3:36 PM 52.7 °F - 28.4 °F 39% 29.95 in 10.0 mi WNW 16.1 mph 21.9 mph N/A   Clear
3:56 PM 51.8 °F - 28.9 °F 41% 29.95 in 10.0 mi West 15.0 mph - N/A   Clear
4:15 PM 50.7 °F - 29.1 °F 43% 29.95 in 10.0 mi WNW 15.0 mph - N/A   Clear
4:36 PM 48.7 °F - 29.3 °F 47% 29.96 in 10.0 mi West 9.2 mph - N/A   Clear
4:56 PM 46.6 °F - 29.1 °F 51% 29.97 in 10.0 mi West 9.2 mph 16.1 mph N/A   Clear
5:16 PM 43.7 °F 38.1 °F 28.8 °F 56% 29.98 in 10.0 mi WNW 10.4 mph - N/A   Clear
5:36 PM 43.9 °F 38.8 °F 28.9 °F 56% 29.99 in 10.0 mi West 9.2 mph - N/A   Clear
5:56 PM 41.2 °F 36.6 °F 28.4 °F 60% 29.98 in 10.0 mi West 6.9 mph - N/A   Clear
6:16 PM 39.2 °F 34.2 °F 27.9 °F 64% 29.99 in 10.0 mi WSW 6.9 mph - N/A   Clear
6:36 PM 39.9 °F 34.5 °F 28.4 °F 63% 29.98 in 10.0 mi WSW 8.1 mph - N/A   Clear
6:56 PM 41.0 °F 35.8 °F 29.1 °F 63% 29.98 in 10.0 mi WSW 8.1 mph - N/A   Clear
7:16 PM 40.3 °F 35.5 °F 28.9 °F 64% 29.98 in 10.0 mi WSW 6.9 mph - N/A   Clear
7:36 PM 39.6 °F 36.3 °F 28.8 °F 65% 29.98 in 10.0 mi WSW 4.6 mph - N/A   Clear
7:56 PM 38.3 °F 33.9 °F 28.4 °F 68% 29.97 in 10.0 mi West 5.8 mph - N/A   Clear
8:16 PM 35.8 °F 29.4 °F 27.7 °F 72% 29.97 in 10.0 mi SW 8.1 mph - N/A   Clear
8:36 PM 39.4 °F 33.2 °F 28.6 °F 65% 29.97 in 10.0 mi SW 9.2 mph - N/A   Clear
8:56 PM 38.8 °F 32.6 °F 28.4 °F 66% 29.96 in 10.0 mi SW 9.2 mph - N/A   Clear
9:16 PM 38.3 °F 32.5 °F 28.4 °F 68% 29.95 in 10.0 mi SW 8.1 mph - N/A   Clear
9:36 PM 39.4 °F 33.8 °F 28.9 °F 66% 29.94 in 10.0 mi SW 8.1 mph - N/A   Clear
9:56 PM 37.9 °F 31.5 °F 28.4 °F 69% 29.95 in 10.0 mi SW 9.2 mph - N/A   Clear
10:15 PM 38.5 °F 32.7 °F 28.8 °F 68% 29.95 in 10.0 mi SW 8.1 mph - N/A   Clear
10:36 PM 37.6 °F 33.1 °F 28.4 °F 69% 29.95 in 10.0 mi SW 5.8 mph - N/A   Clear
10:55 PM 38.5 °F 32.1 °F 28.9 °F 69% 29.95 in 10.0 mi WSW 9.2 mph - N/A   Clear
11:16 PM 38.7 °F 33.6 °F 28.9 °F 68% 29.95 in 10.0 mi SW 6.9 mph - N/A   Clear
11:36 PM 37.4 °F 29.8 °F 28.2 °F 69% 29.96 in 10.0 mi SW 11.5 mph - N/A   Clear
11:56 PM 36.0 °F 29.0 °F 27.9 °F 72% 29.97 in 10.0 mi SW 9.2 mph - N/A   Clear